Starlink 30944

operational
NORAD ID: 58451 Int'l Des: 2023-183 Owner: SPXS Country: US Constellation: starlink
LEOCIRCULAR

Über Starlink 30944

Beschreibung wird geladen...

Live-Position

3D-Globus wird geladen...

Nächste Überflüge

Höhenverlauf

Altitude vs Time

uPlot chart will show altitude changes over time

Zweizeiliger Elementsatz

1 58451U 23183Q 25353.35190859 .00000052 00000-0 18944-4 0 9995
2 58451 43.0012 119.4881 0001098 271.7438 88.3278 15.02538511114606
Epoch: 19. Dez. 2025 • Age: 17 hours

Aktueller Status

Höhe 568.7 km
Geschwindigkeit 7.58 km/s
Subsatellitenpunkt -35.68°S, 49.36°W
Startdatum 28. Nov. 2023
Alter 2 years
Typ internet

Technische Details

Klassifizierung Payload
Masse 730.00 kg
Trockenmasse 700.00 kg
Gesamtmasse 730.00 kg
Länge 0.30 m
Durchmesser 4.10 m
Spannweite 29.00 m
Form Box + pan
Hersteller SPXS
Bus-Typ Starlink V2M
Phasenstatus In Orbit
Besitzer/Staat SPXS/US

Große Konstellationen

Loading constellations...